Theta_e
288 288 287 286 286 286 287 287 286 287 286 286 286 286 286 286 287 289 295 297 298 298 298 298 299 300 300 299 300 300 299 299 299 300 300 300 300 298 297 296 296 296 296
286 286 285 285 285 285 286 286 286 286 286 286 286 286 286 285 286 286 287 293 297 298 298 298 299 299 298 299 298 298 298 298 299 299 299 299 299 299 298 296 296 296 296
285 284 284 284 284 284 284 285 285 286 286 286 286 286 286 285 285 285 285 287 290 296 297 298 298 299 299 298 298 298 298 299 298 299 299 299 298 298 297 296 295 295 296
284 284 284 284 284 284 284 284 284 285 285 286 286 285 285 285 285 285 285 285 286 288 293 297 298 299 299 299 299 298 298 299 299 300 298 298 298 298 296 295 296 295 295
284 284 284 284 284 284 284 284 284 284 284 285 286 286 285 285 285 285 285 285 285 286 287 292 296 297 298 298 299 298 297 298 299 298 299 298 298 298 296 295 294 294 294
281 281 282 283 283 284 284 284 284 285 284 284 284 285 286 285 285 285 285 285 285 285 286 287 292 295 297 297 298 298 298 298 298 298 299 299 298 297 296 294 293 292 293
278 279 279 279 280 281 282 283 284 284 284 284 284 284 285 285 285 285 285 285 285 285 285 286 288 293 295 297 297 297 298 297 297 298 298 298 298 297 296 294 293 292 292
276 276 276 277 277 278 279 280 282 283 283 284 284 284 284 284 285 285 285 285 285 285 285 285 286 289 293 296 296 297 296 296 296 297 298 297 296 295 295 293 292 291 291
277 277 276 276 276 276 276 278 279 281 282 282 283 284 284 284 284 285 285 285 285 285 285 285 285 286 291 293 295 296 296 296 296 297 297 296 295 294 292 291 291 290 291
277 277 276 276 276 275 275 276 278 279 280 281 282 282 283 283 283 284 285 285 285 285 285 285 284 285 287 291 293 294 295 295 295 296 296 296 295 292 291 290 290 291 291
276 276 276 276 275 275 275 275 276 277 278 279 279 280 281 282 282 283 284 285 285 285 285 285 285 285 284 286 290 292 293 294 294 294 295 295 295 292 290 290 290 291 290
276 276 275 275 275 274 274 274 274 275 276 277 278 279 279 280 280 282 283 284 284 284 285 285 285 285 285 284 286 291 292 293 293 294 294 294 294 294 290 290 290 289 290
276 276 275 275 274 274 273 273 273 273 273 274 275 276 278 279 279 280 281 282 284 284 284 285 285 285 285 285 285 290 292 292 292 293 292 293 293 293 290 289 290 289 290
276 275 275 275 274 273 273 272 272 272 271 272 272 273 275 277 278 278 279 281 282 284 284 284 285 285 285 285 284 288 290 290 291 291 292 292 292 292 290 289 289 289 289
275 275 275 274 274 274 273 272 272 271 269 268 269 269 270 273 274 274 275 278 280 281 283 284 284 285 285 285 284 284 290 290 290 290 291 291 291 292 291 289 289 289 289
275 275 274 274 274 274 273 273 272 272 271 270 270 268 270 269 269 271 272 274 275 277 281 283 284 284 284 285 284 284 284 289 289 289 290 290 291 291 291 289 288 289 289
274 274 274 273 273 273 273 273 273 273 272 271 271 271 271 269 269 269 270 272 273 275 279 282 284 284 284 284 284 284 284 284 288 289 289 289 290 290 290 290 288 288 288
273 273 273 272 272 272 273 273 272 272 273 273 272 271 270 271 271 269 269 271 276 276 278 281 282 283 284 284 284 284 284 283 283 287 288 288 289 289 290 290 288 288 287
273 272 272 272 272 272 271 271 272 272 272 272 272 272 271 271 270 270 270 270 273 275 276 279 280 282 283 284 284 284 284 283 283 283 286 287 288 289 289 289 289 288 287
272 272 272 271 271 271 271 271 271 271 271 272 271 271 271 271 270 271 270 270 271 272 274 276 279 281 282 282 284 284 284 284 283 283 283 286 286 287 288 289 289 288 287
272 272 272 271 271 271 271 271 270 270 271 271 271 271 270 269 269 269 269 270 270 271 273 274 277 279 279 281 283 284 283 283 284 283 283 283 286 286 288 288 289 289 287
272 272 272 271 271 270 271 270 270 270 270 270 271 271 270 270 270 269 269 269 270 270 272 273 275 277 279 281 282 283 283 283 283 283 283 283 284 286 287 288 288 289 287
272 272 272 271 271 271 271 271 271 270 270 270 270 271 271 270 270 270 269 269 270 270 271 272 274 275 278 279 281 282 283 283 283 283 283 283 283 285 286 287 288 288 289
272 271 272 271 271 271 271 271 271 271 271 271 270 270 271 271 271 271 270 270 270 270 271 271 272 274 276 278 279 281 282 283 283 283 283 283 282 282 285 286 287 288 288
272 272 272 271 271 271 271 271 271 271 271 271 271 271 271 271 271 271 271 271 271 271 271 271 272 273 274 277 278 280 281 282 282 282 283 283 283 283 284 285 286 287 288
272 272 272 272 272 271 271 271 271 271 271 271 270 271 271 271 271 271 271 271 271 271 271 271 271 272 274 274 277 279 280 281 282 282 282 283 282 282 283 285 286 286 287
Wind_Speed
20 22 21 20 20 20 20 20 19 17 18 19 21 22 23 22 22 18 11 11 18 16 6 7 10 11 13 13 13 15 12 10 10 8 7 7 6 6 8 8 9 8 6
19 17 17 17 17 18 21 22 22 19 17 18 18 20 21 21 22 22 19 13 9 16 15 5 3 6 10 13 12 12 9 8 7 8 10 6 7 8 9 10 10 9 8
15 16 16 17 18 19 21 22 22 22 20 16 17 18 20 21 20 20 22 20 14 9 13 12 6 3 3 6 6 10 9 8 10 8 6 8 7 6 8 9 10 9 8
17 17 18 17 18 19 20 20 21 21 22 21 17 16 17 19 19 19 21 22 21 16 9 8 8 4 3 2 3 6 7 8 7 5 6 5 4 5 8 9 9 9 8
21 21 21 20 19 19 19 19 20 20 21 21 21 17 16 17 20 20 19 21 21 20 16 8 7 6 3 2 3 4 5 5 3 2 3 4 4 5 7 9 8 8 7
27 27 27 26 24 23 23 23 22 21 19 20 20 20 19 16 17 19 18 18 19 19 19 15 7 5 4 3 2 3 3 3 3 3 4 5 5 5 7 8 8 8 4
30 31 31 30 30 28 25 24 26 23 21 19 19 19 18 17 15 16 17 17 18 18 17 16 11 6 5 3 2 2 3 4 3 4 5 5 6 7 7 8 7 7 5
23 25 27 29 29 29 27 25 24 24 22 19 18 17 17 16 16 15 15 15 15 15 17 16 14 9 5 4 2 2 3 2 3 4 5 7 8 7 8 8 7 6 3
18 21 22 24 25 24 24 23 22 22 21 19 17 16 16 16 15 15 15 13 12 14 15 16 16 13 6 5 4 4 3 2 4 5 6 7 7 7 7 6 6 2 3
20 22 24 25 24 23 21 19 19 19 19 18 16 15 14 15 14 14 15 14 12 10 12 13 15 15 13 4 4 4 4 3 3 4 5 5 7 7 6 5 3 2 3
21 22 23 24 24 23 21 20 19 18 17 17 15 13 13 13 12 13 13 14 13 12 10 12 13 14 15 10 4 4 4 4 4 4 4 4 5 6 5 4 1 3 3
20 22 23 24 24 23 22 20 19 17 17 17 16 13 12 12 10 10 10 12 13 13 11 10 12 13 14 14 8 3 5 3 3 3 3 4 4 5 4 2 0 3 4
19 21 23 24 24 24 23 21 19 18 17 15 15 15 14 12 11 9 10 11 11 12 12 11 10 11 13 14 12 2 3 3 2 3 3 3 4 4 2 0 1 1 3
17 19 22 24 25 25 25 24 22 20 18 18 17 17 16 15 14 11 10 11 11 12 14 13 11 9 11 13 14 5 1 2 4 3 3 2 2 4 3 1 2 2 3
16 18 21 23 24 25 25 26 25 21 18 18 18 18 19 18 15 16 16 13 12 12 13 15 14 10 8 10 11 11 2 3 4 4 4 3 3 3 3 1 2 3 2
14 16 18 21 22 24 25 24 24 24 22 18 16 16 17 17 18 18 17 18 16 13 14 15 14 13 10 9 9 9 7 4 5 6 5 4 3 3 2 1 2 4 4
12 14 16 18 20 23 24 27 27 24 25 24 22 18 18 18 18 17 17 17 17 14 17 17 16 15 13 11 10 9 8 7 6 5 7 6 5 3 1 0 2 4 5
11 13 15 16 19 21 22 24 26 28 29 28 26 26 22 19 20 18 16 16 18 17 17 17 19 18 15 14 12 10 8 7 5 7 7 6 7 6 3 2 2 4 7
12 14 15 16 18 20 21 22 24 26 27 29 29 28 27 23 16 16 16 14 14 15 16 18 21 20 17 15 15 13 10 8 7 6 6 7 7 6 6 4 4 5 7
13 15 16 17 18 19 21 22 24 25 26 28 30 32 32 32 30 23 15 14 14 15 16 17 21 20 18 17 16 15 13 10 9 8 4 7 6 6 7 6 5 5 7
16 17 18 19 19 20 21 22 23 24 25 26 28 29 29 28 28 24 21 15 14 14 17 19 21 21 18 18 19 19 16 13 10 9 6 4 8 6 6 7 8 7 8
19 19 20 21 21 21 21 22 23 23 24 25 25 26 25 26 27 25 20 16 14 14 15 19 22 23 19 18 19 21 19 15 12 10 8 6 6 8 5 7 8 8 8
21 21 21 22 22 22 22 21 22 22 23 23 23 25 26 25 26 26 23 18 14 14 14 17 23 25 23 20 21 22 21 17 15 12 11 8 4 10 7 6 7 8 9
23 22 22 22 22 23 22 22 22 21 21 22 22 21 23 24 23 25 24 22 17 14 14 15 19 26 28 25 23 23 22 20 17 15 14 11 6 6 12 7 6 8 10
23 23 22 22 23 23 22 22 21 21 20 21 21 20 20 22 21 21 23 23 20 18 15 15 17 23 28 31 28 26 23 22 20 19 17 13 9 7 8 7 6 8 10
22 22 22 23 23 22 22 23 21 21 20 20 20 20 20 20 21 20 20 21 22 20 18 17 18 21 28 31 34 31 28 24 23 22 20 16 12 9 10 9 6 7 9
Wind_Direction
345 343 344 352 359 358 358 358 352 351 354 2 3 5 16 12 9 6 346 352 358 4 307 264 233 233 246 266 262 247 235 221 234 249 268 260 278 309 317 324 320 309 292
342 346 351 355 0 4 6 5 0 353 349 353 359 -0 8 17 14 12 10 1 2 357 356 336 289 239 239 252 248 226 226 235 247 270 263 273 281 291 305 315 315 312 302
336 340 342 345 352 0 3 2 2 359 355 344 347 356 358 7 12 13 15 15 3 1 356 348 359 321 265 242 244 232 241 251 256 268 262 285 289 288 295 313 310 310 303
328 330 331 333 340 346 350 352 356 359 356 354 340 343 352 353 359 9 12 13 17 7 8 350 342 348 332 272 250 248 252 258 255 262 278 278 297 320 315 317 313 308 304
316 317 317 321 325 327 330 337 343 349 351 351 349 337 336 344 352 360 6 9 12 16 11 358 343 343 316 284 273 261 255 252 233 253 272 302 307 317 329 328 325 316 305
309 307 306 305 305 306 310 315 322 330 335 342 344 345 339 333 340 351 356 1 5 10 13 14 357 345 331 298 274 272 277 290 269 301 297 300 304 314 337 325 328 328 310
306 305 303 300 299 300 300 301 307 313 320 326 333 335 339 339 326 334 345 354 2 5 8 12 15 11 344 323 277 251 268 274 299 317 294 305 312 315 321 315 317 313 290
320 317 311 306 301 298 297 297 296 300 308 311 317 323 328 332 333 317 326 340 353 359 5 9 9 11 1 337 318 277 264 286 306 323 319 312 307 314 309 303 306 310 272
349 344 338 331 322 314 304 301 300 296 297 301 304 306 310 320 323 326 307 316 338 352 359 5 7 9 15 352 338 289 263 302 313 310 312 321 328 327 316 301 306 286 178
356 353 348 344 342 335 324 313 306 304 301 298 298 299 300 302 311 312 311 298 311 333 348 359 9 9 11 18 337 316 293 280 284 290 309 325 340 333 328 304 305 147 132
2 359 356 352 348 343 336 324 315 305 298 296 296 292 291 292 296 296 300 297 294 304 331 344 359 5 6 358 327 301 290 263 263 281 312 323 334 346 350 340 84 113 127
5 4 4 1 359 357 351 343 333 319 306 298 295 290 287 286 289 285 287 287 286 290 300 319 339 352 357 2 343 290 291 290 267 281 301 309 339 352 353 4 265 111 117
9 8 8 10 9 7 4 359 354 348 335 319 308 301 293 287 284 275 266 269 276 276 283 292 310 333 345 351 355 329 291 302 279 271 268 301 331 345 336 345 237 156 123
13 13 13 14 15 15 14 10 5 1 356 346 333 318 305 295 290 289 277 268 264 267 268 268 283 307 331 342 352 -0 287 232 257 248 247 270 316 336 335 261 174 146 146
12 11 14 14 15 17 20 17 15 10 360 342 339 330 321 308 305 312 303 291 279 267 267 263 263 271 297 320 336 355 214 245 248 257 250 245 259 315 328 310 185 166 156
4 5 7 10 12 13 14 23 22 20 16 6 347 333 321 314 317 314 301 296 292 282 257 261 260 260 274 294 317 334 350 227 252 256 249 236 244 276 304 332 191 185 177
351 355 358 1 3 4 7 8 12 22 19 14 10 358 336 324 319 318 311 298 292 287 252 246 254 258 259 272 289 311 327 334 240 263 259 239 243 258 288 198 218 182 167
336 341 345 349 353 356 358 0 1 4 8 12 9 4 356 340 320 319 320 299 269 256 249 238 244 254 247 254 266 283 301 310 311 242 258 256 246 242 241 202 198 183 181
318 324 331 337 340 342 345 349 352 355 358 1 2 2 356 352 341 316 314 306 286 261 242 234 235 247 249 234 254 266 273 287 296 279 244 258 251 236 230 218 188 184 180
303 312 318 323 327 330 332 336 340 344 349 354 358 357 355 357 351 342 318 299 282 268 249 234 232 236 239 233 232 248 260 270 281 297 261 232 247 236 225 220 203 194 181
291 301 307 313 318 322 324 326 329 332 337 343 351 354 356 349 348 341 329 306 292 273 256 239 232 232 230 229 232 238 241 250 259 279 291 247 227 235 224 215 212 204 192
286 292 299 305 311 315 317 319 320 323 327 330 339 347 349 351 351 351 341 320 292 282 265 248 236 232 226 221 222 226 229 232 243 256 269 273 217 225 226 217 212 206 199
285 289 296 298 304 309 312 313 315 317 320 323 328 336 344 348 352 353 352 338 305 283 272 255 241 234 226 216 213 221 224 226 226 233 247 258 257 210 225 221 211 208 199
281 285 293 294 299 304 308 310 312 315 317 318 321 326 336 341 347 350 354 349 334 298 278 266 249 238 229 220 214 217 220 218 220 220 228 243 242 215 214 226 211 202 199
280 285 289 293 296 300 303 306 308 312 314 316 317 318 325 333 339 341 348 352 346 330 298 272 258 242 236 226 219 218 220 219 214 217 225 233 230 215 196 207 216 205 201
278 283 287 290 293 296 298 301 304 307 311 314 316 317 316 323 330 333 334 343 346 342 325 293 268 250 236 231 222 220 222 222 216 215 223 224 227 222 200 207 218 212 201